Home > Time Zones > World Clock > Weather > India > Betul > Past weeks

Flag for India Weather past 2 weeks in Betul, Madhya Pradesh, India

Now
88 °F

Clear.


Feels Like: 85 °F
Forecast: 55 / 86 °F
Wind: 2 mph from East

Location: Nagpur Sonegaon

Current Time: Mar 6, 2015 at 6:56:56 PM

Latest Report: Mar 6, 2015 at 5:40 PM


Visibility: 4 mi

Pressure: 29.92 "Hg

Humidity: 29%

Dew point: 52 °F

Location of BetulLocation

Historic Weather in Betul — Graph

°F

Betul temperature yesterday

Maximum temperature yesterday: 88 °F (at 2:40 PM)
Minimum temperature yesterday: 57 °F (at 6:40 AM)
Average temperature yesterday: 74 °F

Past Weeks' High & Low Weather Summary

 TemperatureHumidityPressure
High99 °F (Feb 25, 3:40 PM)94% (Mar 1, 1:40 AM)30.09 "Hg (Mar 1, 1:40 AM)
Low57 °F (Feb 21, 6:40 AM)16% (Feb 25, 3:40 PM)29.74 "Hg (Feb 26, 2:40 PM)
Average76 °F53%29.93 "Hg
* Reported Feb 19 5:40 PM — Mar 6 5:40 PM, Betul, Weather by CustomWeather, © 2015

Note: Actual official high and low records may vary slightly from our data, if they occured in-between our weather recording intervals... More about our weather records

Advertising

Betul weather history for previous 24 hours

 ConditionsComfort  
Time TempWeatherWind HumidityBarometerVisibility
5:40 PM
Fri, Mar 6
88 °FClear.2 mph29%29.92 "Hg4 mi
4:40 PM90 °FPassing clouds.3 mph27%29.92 "Hg4 mi
2:40 PM90 °FClear.3 mph27%29.95 "Hg4 mi
1:40 PM88 °FClear.2 mph29%29.98 "Hg4 mi
12:40 PM86 °FClear.6 mph31%30.04 "Hg4 mi
10:40 AM81 °FHaze.7 mph34%30.09 "Hg4 mi
8:40 AM72 °FHaze.3 mph44%30.09 "Hg2 mi
7:40 AM66 °FHaze.No wind52%30.07 "Hg2 mi
6:40 AM64 °FHaze.No wind56%30.01 "Hg2 mi
5:40 AM63 °FHaze.No wind59%29.98 "Hg2 mi
4:40 AM63 °FHaze.No wind59%29.98 "Hg2 mi
1:40 AM66 °FHaze.No wind60%29.95 "Hg2 mi
12:40 AM70 °FHaze.3 mph46%29.98 "Hg2 mi
11:40 PM
Thu, Mar 5
70 °FHaze.2 mph46%29.98 "Hg2 mi
10:40 PM68 °FHaze.No wind60%30.01 "Hg2 mi
9:40 PM72 °FHaze.No wind61%30.01 "Hg2 mi
8:40 PM72 °FHaze.No wind65%29.98 "Hg3 mi
7:40 PM75 °FHaze.No wind57%29.95 "Hg3 mi
6:40 PM81 °FHaze.2 mph34%29.92 "Hg3 mi
Weather by CustomWeather, © 2015

See weather overviewHow to use our weather pages